AST,Max TemperatureF,Mean TemperatureF,Min TemperatureF,Max Dew PointF,MeanDew PointF,Min DewpointF,Max Humidity, Mean Humidity, Min Humidity, Max Sea Level PressureIn, Mean Sea Level PressureIn, Min Sea Level PressureIn, Max VisibilityMiles, Mean VisibilityMiles, Min VisibilityMiles, Max Wind SpeedMPH, Mean Wind SpeedMPH, Max Gust SpeedMPH,PrecipitationIn, CloudCover, Events, WindDirDegrees
2014-2-1,74,68,62,55,48,43,77,49,25,30.09,30.04,30.01,12,10,6,17,11,32,0.00,,,331
2014-2-2,67,64,62,57,51,46,77,62,45,30.06,30.01,29.95,10,7,6,14,7,,0.04,7,Rain,352
2014-2-3,73,68,62,64,59,54,88,73,56,29.99,29.88,29.80,10,7,6,18,10,28,0.00,3,,64
2014-2-4,75,70,66,66,64,57,94,82,72,29.91,29.83,29.77,6,5,4,20,10,,0.00,2,,29
2014-2-5,72,66,60,58,51,46,73,60,37,30.04,29.95,29.89,9,6,5,20,15,29,0.00,2,,330
2014-2-6,64,60,55,48,43,36,72,53,26,30.10,30.04,30.01,11,7,6,14,10,,0.00,1,,319
2014-2-7,65,59,53,52,46,41,72,59,26,30.17,30.07,30.04,10,7,6,12,7,,0.00,3,,345
2014-2-8,70,65,60,56,53,50,73,65,47,30.11,30.05,30.01,10,6,5,14,8,,0.12,3,Rain,354
2014-2-9,68,63,58,57,50,45,94,64,37,30.19,30.11,30.06,10,6,4,17,10,,0.00,7,Rain,319
2014-2-10,70,62,54,54,48,45,72,58,38,30.21,30.12,29.98,10,7,6,13,8,,0.00,1,,321
2014-2-11,70,62,53,47,42,36,72,49,21,30.13,30.05,29.98,9,8,6,12,6,,0.00,,,303
2014-2-12,69,61,53,46,36,21,67,41,10,30.06,29.98,29.92,11,9,6,14,6,,0.00,,,281
2014-2-13,71,63,55,55,48,42,73,56,32,30.12,30.03,29.95,9,6,6,20,8,,0.00,1,,325
2014-2-14,73,66,59,58,53,46,82,65,31,30.19,30.11,30.06,9,6,5,10,8,,0.00,1,,345
2014-2-15,73,64,55,55,53,42,94,70,25,30.15,30.07,30.01,7,4,0,9,3,,0.00,1,Fog,121
2014-2-16,73,66,58,61,55,43,88,69,32,30.04,29.97,29.92,10,7,5,16,7,,0.00,,,125
2014-2-17,76,70,64,63,57,48,88,65,27,30.09,29.98,29.89,9,5,4,16,11,26,0.00,,,111
2014-2-18,75,68,62,61,51,41,78,56,24,30.22,30.14,30.09,9,6,4,20,13,30,0.00,3,,328
2014-2-19,74,66,59,52,47,37,72,52,21,30.22,30.15,30.09,9,6,4,18,10,29,0.00,1,,312
2014-2-20,76,68,59,54,46,38,68,46,16,30.17,30.11,30.06,9,7,6,16,10,23,0.00,,,309
2014-2-21,77,68,60,59,53,45,88,63,22,30.20,30.12,30.06,9,6,4,13,8,,0.00,,,332
2014-2-22,77,68,58,57,51,36,82,60,16,30.16,30.07,30.04,9,6,4,12,5,,0.00,1,,343
2014-2-23,76,67,58,57,55,50,88,70,30,30.12,30.03,29.95,19,6,3,12,3,,0.00,,,152
2014-2-24,74,68,62,62,60,58,88,72,53,30.10,30.03,29.98,7,5,4,10,6,,0.00,,,90
2014-2-25,77,71,65,64,62,60,83,71,50,30.11,30.05,30.00,7,6,4,14,8,,0.00,3,,87
2014-2-26,79,72,65,64,59,46,88,65,32,30.13,30.05,29.98,9,7,6,14,6,,0.00,,,105
2014-2-27,81,74,66,64,56,50,83,57,27,30.09,30.02,29.98,9,7,6,12,5,,0.00,,,135
2014-2-28,81,74,66,61,54,46,73,49,21,30.04,29.97,29.89,9,7,6,12,5,,0.00,7,Rain,66